sat.trackr.live / text

‹ back to catalog

STARLINK-3941

NORAD 52638 · 2022-052AS

PAYLOAD ACTIVE UNKNOWN

§ Identity

Operator
Country
US
Launch date
2022-05-14
Launch site
AFETR
Launch vehicle
Mass (kg)
RCS (m²)

Purposes: comms

External: N2YO · Heavens-Above · Gunter

§ Orbital elements

Epoch: 2026-09-20T03:27:11.007360Z

Period
93.85 min
Inclination
53.1604°
Eccentricity
0.0001412
Mean motion
15.34380796 rev/d
Perigee alt
461.8 km
Apogee alt
463.7 km
Semi-major
6,840.9 km
B*
-4.1773e-6
RAAN
101.0976°
Arg perigee
78.9474°
Mean anomaly
281.1688°
Rev number
24,136

§ Raw data

STARLINK-39411 52638U 22052AS  26263.14387740 -.00000517  00000+0 -41773-5 0  99992 52638  53.1604 101.0976 0001412  78.9474 281.1688 15.34380796241362

JSON: /api/v1/satellites/52638 · /tle

For live sub-satellite position, see the globe view (requires WebGL).

§ Visibility from observer

Set your observer location to see the next 7 days of passes ≥ 10°. The values pass through the URL so the page stays shareable.

No JS? Fill the form by hand. The geolocation button needs JavaScript.